Time,TemperatureF,DewpointF,PressureIn,WindDirection,WindDirectionDegrees,WindSpeedMPH,WindSpeedGustMPH,Humidity,HourlyPrecipIn,Conditions,Clouds,dailyrainin,SoftwareType,DateUTC
2013-01-07 00:00:00,36.4,34.8,30.12,WSW,257,0.0,3.0,94,0.00,,,-99.99,Weather View 32 v60,2013-01-07 08:00:00,
2013-01-07 00:05:00,36.4,34.8,30.11,WSW,257,0.0,3.0,94,0.00,,,-99.99,Weather View 32 v60,2013-01-07 08:05:00,
2013-01-07 00:10:00,36.4,34.8,30.11,WSW,258,0.0,3.0,94,0.00,,,-99.99,Weather View 32 v60,2013-01-07 08:10:00,
2013-01-07 00:15:00,36.6,35.3,30.10,SW,219,0.0,3.0,95,0.00,,,-99.99,Weather View 32 v60,2013-01-07 08:15:00,
2013-01-07 00:20:00,36.5,34.9,30.11,SSW,213,1.0,3.0,94,0.00,,,-99.99,Weather View 32 v60,2013-01-07 08:20:00,
2013-01-07 00:25:00,36.3,34.7,30.11,SW,234,0.0,3.0,94,0.00,,,-99.99,Weather View 32 v60,2013-01-07 08:25:00,
2013-01-07 00:30:00,36.1,34.5,30.11,SSW,204,1.0,3.0,94,0.00,,,-99.99,Weather View 32 v60,2013-01-07 08:30:00,
2013-01-07 00:35:00,36.2,34.6,30.11,SW,215,1.0,2.0,94,0.00,,,-99.99,Weather View 32 v60,2013-01-07 08:35:00,
2013-01-07 00:40:00,36.2,34.6,30.11,SW,236,0.0,2.0,94,0.00,,,-99.99,Weather View 32 v60,2013-01-07 08:40:00,
2013-01-07 00:45:00,36.0,34.4,30.12,WSW,237,0.0,2.0,94,0.00,,,-99.99,Weather View 32 v60,2013-01-07 08:45:00,
2013-01-07 00:50:00,35.9,34.3,30.12,WSW,237,0.0,2.0,94,0.00,,,-99.99,Weather View 32 v60,2013-01-07 08:50:00,
2013-01-07 00:55:00,36.0,34.7,30.13,WNW,298,2.0,2.0,95,0.00,,,-99.99,Weather View 32 v60,2013-01-07 08:55:00,
2013-01-07 01:00:00,36.2,34.9,30.14,WNW,286,2.0,3.0,95,0.00,,,-99.99,Weather View 32 v60,2013-01-07 09:00:00,
2013-01-07 01:05:00,36.2,34.9,30.14,NNW,329,2.0,3.0,95,0.00,,,-99.99,Weather View 32 v60,2013-01-07 09:05:00,
2013-01-07 01:10:00,36.2,34.9,30.15,North,5,2.0,3.0,95,0.00,,,-99.99,Weather View 32 v60,2013-01-07 09:10:00,
2013-01-07 01:15:00,36.1,34.8,30.15,NNE,22,2.0,3.0,95,0.00,,,-99.99,Weather View 32 v60,2013-01-07 09:15:00,
2013-01-07 01:20:00,36.0,34.7,30.15,NNE,29,2.0,3.0,95,0.00,,,-99.99,Weather View 32 v60,2013-01-07 09:20:00,
2013-01-07 01:25:00,35.9,34.6,30.15,ENE,64,1.0,3.0,95,0.00,,,-99.99,Weather View 32 v60,2013-01-07 09:25:00,
2013-01-07 01:30:00,36.0,34.7,30.15,East,84,1.0,3.0,95,0.00,,,-99.99,Weather View 32 v60,2013-01-07 09:30:00,
2013-01-07 01:35:00,36.2,34.9,30.15,East,87,2.0,3.0,95,0.00,,,-99.99,Weather View 32 v60,2013-01-07 09:35:00,
2013-01-07 01:40:00,36.2,34.9,30.15,East,95,1.0,3.0,95,0.00,,,-99.99,Weather View 32 v60,2013-01-07 09:40:00,
2013-01-07 01:45:00,36.2,34.9,30.15,East,90,1.0,3.0,95,0.00,,,-99.99,Weather View 32 v60,2013-01-07 09:45:00,
2013-01-07 01:50:00,36.1,34.8,30.15,NW,318,1.0,3.0,95,0.00,,,-99.99,Weather View 32 v60,2013-01-07 09:50:00,
2013-01-07 01:55:00,36.0,34.7,30.15,NW,318,0.0,3.0,95,0.00,,,-99.99,Weather View 32 v60,2013-01-07 09:55:00,
2013-01-07 02:00:00,35.9,34.6,30.15,NW,318,0.0,3.0,95,0.00,,,-99.99,Weather View 32 v60,2013-01-07 10:00:00,
2013-01-07 02:20:00,35.9,34.6,30.14,NE,42,1.0,3.0,95,0.00,,,-99.99,Weather View 32 v60,2013-01-07 10:20:00,
2013-01-07 02:25:00,35.8,34.5,30.13,ENE,78,1.0,3.0,95,0.00,,,-99.99,Weather View 32 v60,2013-01-07 10:25:00,
2013-01-07 02:30:00,36.0,34.7,30.13,SSE,157,1.0,3.0,95,0.00,,,-99.99,Weather View 32 v60,2013-01-07 10:30:00,
2013-01-07 03:07:00,35.9,34.6,30.14,NE,56,1.0,3.0,95,0.00,,,-99.99,Weather View 32 v60,2013-01-07 11:07:00,
2013-01-07 03:12:00,35.8,34.5,30.14,East,95,1.0,3.0,95,0.00,,,-99.99,Weather View 32 v60,2013-01-07 11:12:00,
2013-01-07 03:17:00,35.9,34.6,30.13,East,95,0.0,3.0,95,0.00,,,-99.99,Weather View 32 v60,2013-01-07 11:17:00,
2013-01-07 03:25:00,35.1,33.8,30.14,ENE,71,1.0,4.0,95,0.00,,,-99.99,Weather View 32 v60,2013-01-07 11:25:00,
2013-01-07 03:37:00,35.9,34.6,30.14,SSW,202,2.0,3.0,95,0.00,,,-99.99,Weather View 32 v60,2013-01-07 11:37:00,
2013-01-07 03:40:00,34.8,33.5,30.13,ENE,72,1.0,4.0,95,0.00,,,-99.99,Weather View 32 v60,2013-01-07 11:40:00,
2013-01-07 03:42:00,35.8,34.5,30.14,WSW,239,1.0,3.0,95,0.00,,,-99.99,Weather View 32 v60,2013-01-07 11:42:00,
2013-01-07 03:47:00,35.7,34.4,30.14,West,260,2.0,3.0,95,0.00,,,-99.99,Weather View 32 v60,2013-01-07 11:47:00,
2013-01-07 03:55:00,34.7,33.7,30.13,West,277,0.0,4.0,96,0.00,,,-99.99,Weather View 32 v60,2013-01-07 11:55:00,
2013-01-07 03:57:00,35.8,34.5,30.14,SW,226,1.0,3.0,95,0.00,,,-99.99,Weather View 32 v60,2013-01-07 11:57:00,
2013-01-07 04:02:00,35.7,34.4,30.14,South,172,3.0,3.0,95,0.00,,,-99.99,Weather View 32 v60,2013-01-07 12:02:00,
2013-01-07 04:05:00,35.0,34.0,30.13,SE,125,1.0,4.0,96,0.00,,,-99.99,Weather View 32 v60,2013-01-07 12:05:00,
2013-01-07 04:07:00,35.6,34.3,30.15,West,280,2.0,3.0,95,0.00,,,-99.99,Weather View 32 v60,2013-01-07 12:07:00,
2013-01-07 04:12:00,35.3,34.0,30.14,SE,145,3.0,4.0,95,0.00,,,-99.99,Weather View 32 v60,2013-01-07 12:12:00,
2013-01-07 04:17:00,35.2,33.9,30.14,SSE,148,1.0,4.0,95,0.00,,,-99.99,Weather View 32 v60,2013-01-07 12:17:00,
2013-01-07 04:20:00,35.2,34.2,30.13,ENE,68,1.0,5.0,96,0.00,,,-99.99,Weather View 32 v60,2013-01-07 12:20:00,
2013-01-07 04:22:00,35.2,33.9,30.14,SSE,149,2.0,4.0,95,0.00,,,-99.99,Weather View 32 v60,2013-01-07 12:22:00,
2013-01-07 04:30:00,35.2,34.2,30.12,East,99,1.0,5.0,96,0.00,,,-99.99,Weather View 32 v60,2013-01-07 12:30:00,
2013-01-07 04:32:00,34.9,33.6,30.13,East,88,2.0,4.0,95,0.00,,,-99.99,Weather View 32 v60,2013-01-07 12:32:00,
2013-01-07 04:37:00,34.9,33.6,30.13,East,94,2.0,4.0,95,0.00,,,-99.99,Weather View 32 v60,2013-01-07 12:37:00,
2013-01-07 04:47:00,34.7,33.4,30.13,NNE,22,1.0,4.0,95,0.00,,,-99.99,Weather View 32 v60,2013-01-07 12:47:00,
2013-01-07 04:50:00,35.3,34.3,30.13,ESE,104,2.0,5.0,96,0.00,,,-99.99,Weather View 32 v60,2013-01-07 12:50:00,
2013-01-07 04:52:00,34.7,33.7,30.13,NNE,23,0.0,4.0,96,0.00,,,-99.99,Weather View 32 v60,2013-01-07 12:52:00,
2013-01-07 05:02:00,34.9,33.9,30.13,West,280,1.0,4.0,96,0.00,,,-99.99,Weather View 32 v60,2013-01-07 13:02:00,
2013-01-07 05:12:00,35.1,34.1,30.13,ESE,105,0.0,4.0,96,0.00,,,-99.99,Weather View 32 v60,2013-01-07 13:12:00,
2013-01-07 05:15:00,35.4,34.4,30.14,ESE,117,1.0,5.0,96,0.00,,,-99.99,Weather View 32 v60,2013-01-07 13:15:00,
2013-01-07 05:22:00,35.2,34.2,30.13,ENE,68,1.0,5.0,96,0.00,,,-99.99,Weather View 32 v60,2013-01-07 13:22:00,
2013-01-07 05:27:00,35.2,34.2,30.12,East,97,2.0,5.0,96,0.00,,,-99.99,Weather View 32 v60,2013-01-07 13:27:00,
2013-01-07 05:35:00,35.4,34.4,30.14,ESE,111,2.0,5.0,96,0.00,,,-99.99,Weather View 32 v60,2013-01-07 13:35:00,
2013-01-07 05:37:00,35.2,34.2,30.13,WNW,287,1.0,5.0,96,0.00,,,-99.99,Weather View 32 v60,2013-01-07 13:37:00,
2013-01-07 05:40:00,35.4,34.4,30.14,NNW,337,2.0,5.0,96,0.00,,,-99.99,Weather View 32 v60,2013-01-07 13:40:00,
2013-01-07 05:42:00,35.2,34.2,30.14,NW,326,2.0,5.0,96,0.00,,,-99.99,Weather View 32 v60,2013-01-07 13:42:00,
2013-01-07 05:47:00,35.3,34.3,30.14,NW,308,2.0,5.0,96,0.00,,,-99.99,Weather View 32 v60,2013-01-07 13:47:00,
2013-01-07 05:57:00,35.4,34.4,30.14,SE,141,1.0,5.0,96,0.00,,,-99.99,Weather View 32 v60,2013-01-07 13:57:00,
2013-01-07 06:07:00,35.5,34.5,30.14,SSE,164,0.0,5.0,96,0.00,,,-99.99,Weather View 32 v60,2013-01-07 14:07:00,
2013-01-07 06:10:00,35.5,34.5,30.14,SSE,161,1.0,4.0,96,0.00,,,-99.99,Weather View 32 v60,2013-01-07 14:10:00,
2013-01-07 06:12:00,35.5,34.5,30.14,NE,35,1.0,5.0,96,0.00,,,-99.99,Weather View 32 v60,2013-01-07 14:12:00,
2013-01-07 06:20:00,35.9,34.9,30.15,WSW,252,2.0,4.0,96,0.00,,,-99.99,Weather View 32 v60,2013-01-07 14:20:00,
2013-01-07 06:22:00,35.4,34.4,30.14,SSE,168,0.0,5.0,96,0.00,,,-99.99,Weather View 32 v60,2013-01-07 14:22:00,
2013-01-07 06:27:00,35.3,34.3,30.14,SSE,160,2.0,5.0,96,0.00,,,-99.99,Weather View 32 v60,2013-01-07 14:27:00,
2013-01-07 06:30:00,36.1,35.1,30.13,SE,141,5.0,5.0,96,0.00,,,-99.99,Weather View 32 v60,2013-01-07 14:30:00,
2013-01-07 06:32:00,35.3,34.3,30.14,East,93,1.0,5.0,96,0.00,,,-99.99,Weather View 32 v60,2013-01-07 14:32:00,
2013-01-07 06:35:00,36.3,35.3,30.13,SSE,154,2.0,6.0,96,0.00,,,-99.99,Weather View 32 v60,2013-01-07 14:35:00,
2013-01-07 06:40:00,36.5,35.5,30.13,East,86,1.0,6.0,96,0.00,,,-99.99,Weather View 32 v60,2013-01-07 14:40:00,
2013-01-07 06:47:00,35.5,34.5,30.14,NE,35,1.0,5.0,96,0.00,,,-99.99,Weather View 32 v60,2013-01-07 14:47:00,
2013-01-07 06:52:00,35.4,34.4,30.15,NE,35,1.0,5.0,96,0.00,,,-99.99,Weather View 32 v60,2013-01-07 14:52:00,
2013-01-07 06:57:00,35.4,34.4,30.14,East,79,1.0,5.0,96,0.00,,,-99.99,Weather View 32 v60,2013-01-07 14:57:00,
2013-01-07 07:02:00,35.4,34.4,30.14,SE,145,0.0,5.0,96,0.00,,,-99.99,Weather View 32 v60,2013-01-07 15:02:00,
2013-01-07 07:07:00,35.4,34.4,30.14,SE,129,1.0,5.0,96,0.00,,,-99.99,Weather View 32 v60,2013-01-07 15:07:00,
2013-01-07 07:10:00,37.6,36.6,30.15,NW,307,3.0,6.0,96,0.00,,,-99.99,Weather View 32 v60,2013-01-07 15:10:00,
2013-01-07 07:17:00,35.6,34.6,30.14,SW,230,2.0,4.0,96,0.00,,,-99.99,Weather View 32 v60,2013-01-07 15:17:00,
2013-01-07 07:27:00,36.1,35.1,30.14,SE,145,3.0,4.0,96,0.00,,,-99.99,Weather View 32 v60,2013-01-07 15:27:00,
2013-01-07 07:47:00,36.7,35.7,30.13,ENE,75,1.0,6.0,96,0.00,,,-99.99,Weather View 32 v60,2013-01-07 15:47:00,
2013-01-07 07:52:00,37.0,36.0,30.13,NNW,344,0.0,6.0,96,0.00,,,-99.99,Weather View 32 v60,2013-01-07 15:52:00,
2013-01-07 07:57:00,37.1,36.1,30.13,NNW,346,2.0,6.0,96,0.00,,,-99.99,Weather View 32 v60,2013-01-07 15:57:00,
2013-01-07 08:02:00,37.3,36.3,30.14,WNW,295,2.0,6.0,96,0.00,,,-99.99,Weather View 32 v60,2013-01-07 16:02:00,
2013-01-07 08:17:00,37.8,36.8,30.16,NNW,331,2.0,6.0,96,0.00,,,-99.99,Weather View 32 v60,2013-01-07 16:17:00,
2013-01-07 08:22:00,38.1,37.1,30.16,NW,326,1.0,6.0,96,0.00,,,-99.99,Weather View 32 v60,2013-01-07 16:22:00,
2013-01-07 08:32:00,38.9,37.9,30.16,ENE,57,2.0,6.0,96,0.00,,,-99.99,Weather View 32 v60,2013-01-07 16:32:00,
2013-01-07 08:37:00,39.2,38.2,30.16,NE,47,1.0,5.0,96,0.00,,,-99.99,Weather View 32 v60,2013-01-07 16:37:00,
2013-01-07 08:42:00,39.2,38.2,30.16,East,89,2.0,5.0,96,0.00,,,-99.99,Weather View 32 v60,2013-01-07 16:42:00,
2013-01-07 08:47:00,39.5,38.5,30.16,WSW,256,2.0,5.0,96,0.00,,,-99.99,Weather View 32 v60,2013-01-07 16:47:00,
2013-01-07 08:52:00,39.6,38.6,30.16,SW,216,1.0,5.0,96,0.00,,,-99.99,Weather View 32 v60,2013-01-07 16:52:00,
2013-01-07 08:57:00,39.7,38.7,30.16,SE,130,1.0,5.0,96,0.00,,,-99.99,Weather View 32 v60,2013-01-07 16:57:00,
2013-01-07 09:02:00,39.9,38.9,30.16,SW,220,2.0,5.0,96,0.00,,,-99.99,Weather View 32 v60,2013-01-07 17:02:00,
2013-01-07 09:12:00,40.4,39.3,30.16,ESE,111,0.0,5.0,96,0.00,,,-99.99,Weather View 32 v60,2013-01-07 17:12:00,
2013-01-07 09:17:00,40.9,39.8,30.17,ESE,112,0.0,5.0,96,0.00,,,-99.99,Weather View 32 v60,2013-01-07 17:17:00,
2013-01-07 09:22:00,41.3,40.2,30.17,ESE,112,1.0,3.0,96,0.00,,,-99.99,Weather View 32 v60,2013-01-07 17:22:00,
2013-01-07 09:27:00,41.7,40.6,30.17,WNW,285,0.0,3.0,96,0.00,,,-99.99,Weather View 32 v60,2013-01-07 17:27:00,
2013-01-07 09:37:00,43.2,42.1,30.17,WNW,290,1.0,3.0,96,0.00,,,-99.99,Weather View 32 v60,2013-01-07 17:37:00,
2013-01-07 09:42:00,43.8,42.7,30.18,NW,313,2.0,3.0,96,0.00,,,-99.99,Weather View 32 v60,2013-01-07 17:42:00,
2013-01-07 09:47:00,44.1,43.0,30.18,WNW,303,3.0,4.0,96,0.00,,,-99.99,Weather View 32 v60,2013-01-07 17:47:00,
2013-01-07 09:52:00,44.0,42.9,30.18,WNW,284,3.0,4.0,96,0.00,,,-99.99,Weather View 32 v60,2013-01-07 17:52:00,
2013-01-07 09:57:00,44.8,43.7,30.18,WNW,296,1.0,4.0,96,0.00,,,-99.99,Weather View 32 v60,2013-01-07 17:57:00,
2013-01-07 10:07:00,45.8,44.7,30.18,WSW,247,0.0,4.0,96,0.00,,,-99.99,Weather View 32 v60,2013-01-07 18:07:00,
2013-01-07 10:12:00,45.9,44.8,30.17,ESE,107,1.0,4.0,96,0.00,,,-99.99,Weather View 32 v60,2013-01-07 18:12:00,
2013-01-07 10:17:00,46.1,45.0,30.17,SSE,157,2.0,4.0,96,0.00,,,-99.99,Weather View 32 v60,2013-01-07 18:17:00,
2013-01-07 10:20:00,52.4,44.3,30.15,South,174,2.0,7.0,74,0.00,,,-99.99,Weather View 32 v60,2013-01-07 18:20:00,
2013-01-07 10:26:00,46.4,45.3,30.16,SE,145,3.0,5.0,96,0.00,,,-99.99,Weather View 32 v60,2013-01-07 18:26:00,
2013-01-07 10:32:00,47.0,45.4,30.16,SW,225,3.0,5.0,94,0.00,,,-99.99,Weather View 32 v60,2013-01-07 18:32:00,
2013-01-07 10:37:00,47.5,45.6,30.16,SSE,166,3.0,5.0,93,0.00,,,-99.99,Weather View 32 v60,2013-01-07 18:37:00,
2013-01-07 10:40:00,54.2,44.6,30.15,WNW,286,1.0,7.0,70,0.00,,,-99.99,Weather View 32 v60,2013-01-07 18:40:00,
2013-01-07 10:42:00,48.2,46.0,30.16,WSW,247,2.0,5.0,92,0.00,,,-99.99,Weather View 32 v60,2013-01-07 18:42:00,
2013-01-07 10:47:00,48.7,45.6,30.16,SSW,212,3.0,5.0,89,0.00,,,-99.99,Weather View 32 v60,2013-01-07 18:47:00,
2013-01-07 10:57:00,49.8,44.8,30.16,NW,322,2.0,5.0,83,0.00,,,-99.99,Weather View 32 v60,2013-01-07 18:57:00,
2013-01-07 11:00:00,55.2,44.0,30.13,East,100,2.0,7.0,66,0.00,,,-99.99,Weather View 32 v60,2013-01-07 19:00:00,
2013-01-07 11:02:00,50.3,45.0,30.15,South,176,2.0,5.0,82,0.00,,,-99.99,Weather View 32 v60,2013-01-07 19:02:00,
2013-01-07 11:05:00,56.0,44.4,30.12,SSE,166,3.0,7.0,65,0.00,,,-99.99,Weather View 32 v60,2013-01-07 19:05:00,
2013-01-07 11:12:00,51.2,44.6,30.15,SSW,204,2.0,5.0,78,0.00,,,-99.99,Weather View 32 v60,2013-01-07 19:12:00,
2013-01-07 11:15:00,57.4,44.5,30.12,NE,46,2.0,7.0,62,0.00,,,-99.99,Weather View 32 v60,2013-01-07 19:15:00,
2013-01-07 11:17:00,52.0,44.7,30.15,SSW,207,2.0,5.0,76,0.00,,,-99.99,Weather View 32 v60,2013-01-07 19:17:00,
2013-01-07 11:22:00,52.4,44.3,30.15,South,174,2.0,7.0,74,0.00,,,-99.99,Weather View 32 v60,2013-01-07 19:22:00,
2013-01-07 11:25:00,59.5,44.7,30.12,SW,226,2.0,5.0,58,0.00,,,-99.99,Weather View 32 v60,2013-01-07 19:25:00,
2013-01-07 11:27:00,53.2,44.8,30.15,SW,214,5.0,7.0,73,0.00,,,-99.99,Weather View 32 v60,2013-01-07 19:27:00,
2013-01-07 11:35:00,58.9,44.6,30.11,WSW,245,2.0,5.0,59,0.00,,,-99.99,Weather View 32 v60,2013-01-07 19:35:00,
2013-01-07 11:37:00,54.8,44.8,30.15,West,278,4.0,7.0,69,0.00,,,-99.99,Weather View 32 v60,2013-01-07 19:37:00,
2013-01-07 11:47:00,54.6,45.0,30.14,NNE,33,1.0,7.0,70,0.00,,,-99.99,Weather View 32 v60,2013-01-07 19:47:00,
2013-01-07 11:52:00,54.5,44.1,30.15,West,279,2.0,7.0,68,0.00,,,-99.99,Weather View 32 v60,2013-01-07 19:52:00,
2013-01-07 11:55:00,60.5,44.7,30.10,ESE,108,1.0,5.0,56,0.00,,,-99.99,Weather View 32 v60,2013-01-07 19:55:00,
2013-01-07 11:57:00,54.9,44.1,30.14,SSE,155,3.0,7.0,67,0.00,,,-99.99,Weather View 32 v60,2013-01-07 19:57:00,
2013-01-07 12:00:00,60.6,44.3,30.09,SSW,204,3.0,5.0,55,0.00,,,-99.99,Weather View 32 v60,2013-01-07 20:00:00,
2013-01-07 12:05:00,59.4,43.7,30.09,SSE,167,3.0,6.0,56,0.00,,,-99.99,Weather View 32 v60,2013-01-07 20:05:00,
2013-01-07 12:10:00,59.5,44.2,30.10,ENE,70,3.0,6.0,57,0.00,,,-99.99,Weather View 32 v60,2013-01-07 20:10:00,
2013-01-07 12:12:00,56.6,44.1,30.12,SE,128,2.0,7.0,63,0.00,,,-99.99,Weather View 32 v60,2013-01-07 20:12:00,
2013-01-07 12:15:00,59.9,44.6,30.09,SSW,205,5.0,6.0,57,0.00,,,-99.99,Weather View 32 v60,2013-01-07 20:15:00,
2013-01-07 12:22:00,59.1,45.6,30.12,NE,37,1.0,5.0,61,0.00,,,-99.99,Weather View 32 v60,2013-01-07 20:22:00,
2013-01-07 12:25:00,59.9,45.1,30.09,WNW,289,1.0,6.0,58,0.00,,,-99.99,Weather View 32 v60,2013-01-07 20:25:00,
2013-01-07 12:30:00,60.1,45.2,30.09,SSW,209,3.0,6.0,58,0.00,,,-99.99,Weather View 32 v60,2013-01-07 20:30:00,
2013-01-07 12:32:00,58.5,44.2,30.11,SW,234,3.0,5.0,59,0.00,,,-99.99,Weather View 32 v60,2013-01-07 20:32:00,
2013-01-07 12:35:00,60.5,45.2,30.08,SSW,206,4.0,6.0,57,0.00,,,-99.99,Weather View 32 v60,2013-01-07 20:35:00,
2013-01-07 12:42:00,59.3,44.5,30.10,SSE,155,2.0,5.0,58,0.00,,,-99.99,Weather View 32 v60,2013-01-07 20:42:00,
2013-01-07 12:45:00,59.8,45.4,30.08,SW,215,3.0,7.0,59,0.00,,,-99.99,Weather View 32 v60,2013-01-07 20:45:00,
2013-01-07 12:47:00,60.3,45.4,30.10,SE,129,1.0,5.0,58,0.00,,,-99.99,Weather View 32 v60,2013-01-07 20:47:00,
2013-01-07 12:50:00,60.0,46.0,30.08,SSW,212,3.0,7.0,60,0.00,,,-99.99,Weather View 32 v60,2013-01-07 20:50:00,
2013-01-07 12:52:00,60.6,44.8,30.10,South,176,1.0,5.0,56,0.00,,,-99.99,Weather View 32 v60,2013-01-07 20:52:00,
2013-01-07 13:00:00,60.5,46.1,30.08,South,175,4.0,8.0,59,0.00,,,-99.99,Weather View 32 v60,2013-01-07 21:00:00,
2013-01-07 13:05:00,60.7,45.8,30.08,SSE,167,3.0,8.0,58,0.00,,,-99.99,Weather View 32 v60,2013-01-07 21:05:00,
2013-01-07 13:10:00,61.0,46.1,30.07,SSE,164,3.0,8.0,58,0.00,,,-99.99,Weather View 32 v60,2013-01-07 21:10:00,
2013-01-07 13:22:00,59.5,44.2,30.09,SSW,213,4.0,6.0,57,0.00,,,-99.99,Weather View 32 v60,2013-01-07 21:22:00,
2013-01-07 13:25:00,62.8,46.8,30.07,SSW,213,1.0,8.0,56,0.00,,,-99.99,Weather View 32 v60,2013-01-07 21:25:00,
2013-01-07 13:35:00,62.5,46.6,30.07,SE,144,3.0,8.0,56,0.00,,,-99.99,Weather View 32 v60,2013-01-07 21:35:00,
2013-01-07 13:42:00,60.2,45.3,30.08,South,174,5.0,6.0,58,0.00,,,-99.99,Weather View 32 v60,2013-01-07 21:42:00,
2013-01-07 13:55:00,62.4,46.5,30.07,SSW,205,2.0,8.0,56,0.00,,,-99.99,Weather View 32 v60,2013-01-07 21:55:00,
2013-01-07 13:57:00,60.4,46.0,30.08,South,175,4.0,7.0,59,0.00,,,-99.99,Weather View 32 v60,2013-01-07 21:57:00,
2013-01-07 14:05:00,63.2,47.2,30.06,SSE,160,4.0,6.0,56,0.00,,,-99.99,Weather View 32 v60,2013-01-07 22:05:00,
2013-01-07 14:10:00,62.9,46.9,30.06,South,179,5.0,6.0,56,0.00,,,-99.99,Weather View 32 v60,2013-01-07 22:10:00,
2013-01-07 14:15:00,62.2,47.2,30.06,SSW,204,4.0,6.0,58,0.00,,,-99.99,Weather View 32 v60,2013-01-07 22:15:00,
2013-01-07 14:17:00,61.7,46.7,30.07,SW,228,1.0,8.0,58,0.00,,,-99.99,Weather View 32 v60,2013-01-07 22:17:00,
2013-01-07 14:27:00,62.8,46.8,30.07,SSW,213,1.0,8.0,56,0.00,,,-99.99,Weather View 32 v60,2013-01-07 22:27:00,
2013-01-07 14:32:00,63.1,47.1,30.07,SSE,163,2.0,8.0,56,0.00,,,-99.99,Weather View 32 v60,2013-01-07 22:32:00,
2013-01-07 14:35:00,61.8,47.3,30.07,SSW,211,3.0,6.0,59,0.00,,,-99.99,Weather View 32 v60,2013-01-07 22:35:00,
2013-01-07 14:40:00,61.0,47.0,30.07,South,176,4.0,7.0,60,0.00,,,-99.99,Weather View 32 v60,2013-01-07 22:40:00,
2013-01-07 14:42:00,62.3,46.8,30.07,SE,135,4.0,8.0,57,0.00,,,-99.99,Weather View 32 v60,2013-01-07 22:42:00,
2013-01-07 14:45:00,61.0,47.0,30.07,South,174,3.0,7.0,60,0.00,,,-99.99,Weather View 32 v60,2013-01-07 22:45:00,
2013-01-07 14:47:00,62.1,46.6,30.07,ESE,112,4.0,8.0,57,0.00,,,-99.99,Weather View 32 v60,2013-01-07 22:47:00,
2013-01-07 14:50:00,61.0,47.4,30.07,South,179,4.0,7.0,61,0.00,,,-99.99,Weather View 32 v60,2013-01-07 22:50:00,
2013-01-07 14:52:00,62.1,46.2,30.07,SSE,150,2.0,8.0,56,0.00,,,-99.99,Weather View 32 v60,2013-01-07 22:52:00,
2013-01-07 14:55:00,60.8,47.2,30.07,South,178,4.0,7.0,61,0.00,,,-99.99,Weather View 32 v60,2013-01-07 22:55:00,
2013-01-07 15:00:00,60.7,47.1,30.08,SW,217,2.0,7.0,61,0.00,,,-99.99,Weather View 32 v60,2013-01-07 23:00:00,
2013-01-07 15:02:00,63.1,47.1,30.06,SSW,204,2.0,6.0,56,0.00,,,-99.99,Weather View 32 v60,2013-01-07 23:02:00,
2013-01-07 15:20:00,59.8,47.6,30.08,WSW,246,1.0,7.0,64,0.00,,,-99.99,Weather View 32 v60,2013-01-07 23:20:00,
2013-01-07 15:22:00,62.0,47.0,30.06,SSW,212,2.0,6.0,58,0.00,,,-99.99,Weather View 32 v60,2013-01-07 23:22:00,
2013-01-07 15:27:00,62.3,47.3,30.07,SSW,211,2.0,6.0,58,0.00,,,-99.99,Weather View 32 v60,2013-01-07 23:27:00,
2013-01-07 15:32:00,62.2,47.2,30.07,SE,141,3.0,6.0,58,0.00,,,-99.99,Weather View 32 v60,2013-01-07 23:32:00,
2013-01-07 15:45:00,59.0,47.2,30.08,SSW,208,2.0,6.0,65,0.00,,,-99.99,Weather View 32 v60,2013-01-07 23:45:00,
2013-01-07 16:07:00,60.7,47.6,30.08,WSW,243,3.0,7.0,62,0.00,,,-99.99,Weather View 32 v60,2013-01-08 00:07:00,
2013-01-07 16:10:00,57.9,47.4,30.08,SE,128,1.0,5.0,68,0.00,,,-99.99,Weather View 32 v60,2013-01-08 00:10:00,
2013-01-07 16:17:00,60.1,47.4,30.08,SW,220,4.0,7.0,63,0.00,,,-99.99,Weather View 32 v60,2013-01-08 00:17:00,
2013-01-07 16:27:00,59.7,47.5,30.08,SSW,205,2.0,7.0,64,0.00,,,-99.99,Weather View 32 v60,2013-01-08 00:27:00,
2013-01-07 16:30:00,57.5,47.8,30.08,SE,136,3.0,5.0,70,0.00,,,-99.99,Weather View 32 v60,2013-01-08 00:30:00,
2013-01-07 16:32:00,59.8,47.6,30.09,SSE,164,2.0,7.0,64,0.00,,,-99.99,Weather View 32 v60,2013-01-08 00:32:00,
2013-01-07 16:37:00,59.5,47.3,30.08,SE,130,3.0,7.0,64,0.00,,,-99.99,Weather View 32 v60,2013-01-08 00:37:00,
2013-01-07 16:40:00,56.8,47.5,30.07,NNE,23,1.0,5.0,71,0.00,,,-99.99,Weather View 32 v60,2013-01-08 00:40:00,
2013-01-07 16:52:00,58.8,47.4,30.08,West,280,1.0,5.0,66,0.00,,,-99.99,Weather View 32 v60,2013-01-08 00:52:00,
2013-01-07 16:57:00,58.6,47.7,30.08,SSE,167,2.0,5.0,67,0.00,,,-99.99,Weather View 32 v60,2013-01-08 00:57:00,
2013-01-07 17:07:00,58.2,47.7,30.08,SE,129,1.0,5.0,68,0.00,,,-99.99,Weather View 32 v60,2013-01-08 01:07:00,
2013-01-07 17:15:00,54.2,47.5,30.08,NNE,28,1.0,5.0,78,0.00,,,-99.99,Weather View 32 v60,2013-01-08 01:15:00,
2013-01-07 17:17:00,57.8,47.7,30.08,SE,125,2.0,5.0,69,0.00,,,-99.99,Weather View 32 v60,2013-01-08 01:17:00,
2013-01-07 17:22:00,57.5,47.4,30.08,ESE,123,1.0,5.0,69,0.00,,,-99.99,Weather View 32 v60,2013-01-08 01:22:00,
2013-01-07 17:30:00,57.3,47.6,30.08,SE,125,3.0,5.0,70,0.00,,,-99.99,Weather View 32 v60,2013-01-08 01:30:00,
2013-01-07 17:37:00,57.3,47.6,30.08,ENE,68,2.0,5.0,70,0.00,,,-99.99,Weather View 32 v60,2013-01-08 01:37:00,
2013-01-07 17:47:00,56.2,47.3,30.08,NE,37,1.0,5.0,72,0.00,,,-99.99,Weather View 32 v60,2013-01-08 01:47:00,
2013-01-07 17:52:00,55.6,47.4,30.08,NNE,18,1.0,5.0,74,0.00,,,-99.99,Weather View 32 v60,2013-01-08 01:52:00,
2013-01-07 17:57:00,55.2,47.4,30.08,NNE,18,1.0,5.0,75,0.00,,,-99.99,Weather View 32 v60,2013-01-08 01:57:00,
2013-01-07 18:02:00,54.9,47.5,30.08,North,10,1.0,5.0,76,0.00,,,-99.99,Weather View 32 v60,2013-01-08 02:02:00,
2013-01-07 18:05:00,51.4,46.4,30.08,ENE,65,1.0,5.0,83,0.00,,,-99.99,Weather View 32 v60,2013-01-08 02:05:00,
2013-01-07 18:07:00,54.6,47.5,30.08,NNE,13,1.0,5.0,77,0.00,,,-99.99,Weather View 32 v60,2013-01-08 02:07:00,
2013-01-07 18:12:00,54.5,47.4,30.08,ENE,62,2.0,5.0,77,0.00,,,-99.99,Weather View 32 v60,2013-01-08 02:12:00,
2013-01-07 18:22:00,53.9,47.2,30.09,North,6,1.0,5.0,78,0.00,,,-99.99,Weather View 32 v60,2013-01-08 02:22:00,
2013-01-07 18:25:00,50.8,46.1,30.09,ENE,76,2.0,5.0,84,0.00,,,-99.99,Weather View 32 v60,2013-01-08 02:25:00,
2013-01-07 18:27:00,53.8,47.4,30.09,NNE,18,1.0,5.0,79,0.00,,,-99.99,Weather View 32 v60,2013-01-08 02:27:00,
2013-01-07 18:32:00,53.5,47.1,30.09,NNE,19,1.0,5.0,79,0.00,,,-99.99,Weather View 32 v60,2013-01-08 02:32:00,
2013-01-07 18:37:00,53.2,47.2,30.09,East,82,2.0,3.0,80,0.00,,,-99.99,Weather View 32 v60,2013-01-08 02:37:00,
2013-01-07 18:42:00,52.9,46.9,30.09,East,86,1.0,2.0,80,0.00,,,-99.99,Weather View 32 v60,2013-01-08 02:42:00,
2013-01-07 18:47:00,52.5,46.8,30.09,East,89,1.0,2.0,81,0.00,,,-99.99,Weather View 32 v60,2013-01-08 02:47:00,
2013-01-07 18:52:00,52.2,46.9,30.09,East,84,5.0,5.0,82,0.00,,,-99.99,Weather View 32 v60,2013-01-08 02:52:00,
2013-01-07 19:02:00,51.6,46.6,30.08,East,93,2.0,5.0,83,0.00,,,-99.99,Weather View 32 v60,2013-01-08 03:02:00,
2013-01-07 19:12:00,51.2,46.2,30.09,East,80,2.0,5.0,83,0.00,,,-99.99,Weather View 32 v60,2013-01-08 03:12:00,
2013-01-07 19:17:00,51.0,46.3,30.09,NE,35,1.0,5.0,84,0.00,,,-99.99,Weather View 32 v60,2013-01-08 03:17:00,
2013-01-07 19:22:00,50.9,46.2,30.09,ENE,70,1.0,5.0,84,0.00,,,-99.99,Weather View 32 v60,2013-01-08 03:22:00,
2013-01-07 19:25:00,49.3,45.6,30.09,ENE,76,3.0,4.0,87,0.00,,,-99.99,Weather View 32 v60,2013-01-08 03:25:00,
2013-01-07 19:31:00,50.8,46.1,30.09,ENE,76,2.0,5.0,84,0.00,,,-99.99,Weather View 32 v60,2013-01-08 03:31:00,
2013-01-07 19:37:00,50.5,46.2,30.09,East,83,1.0,5.0,85,0.00,,,-99.99,Weather View 32 v60,2013-01-08 03:37:00,
2013-01-07 19:42:00,50.5,46.2,30.09,ENE,76,0.0,5.0,85,0.00,,,-99.99,Weather View 32 v60,2013-01-08 03:42:00,
2013-01-07 19:47:00,50.4,46.4,30.09,SSE,148,2.0,5.0,86,0.00,,,-99.99,Weather View 32 v60,2013-01-08 03:47:00,
2013-01-07 19:50:00,49.1,45.7,30.10,East,98,0.0,4.0,88,0.00,,,-99.99,Weather View 32 v60,2013-01-08 03:50:00,
2013-01-07 19:52:00,50.3,46.3,30.09,NNE,22,1.0,5.0,86,0.00,,,-99.99,Weather View 32 v60,2013-01-08 03:52:00,
2013-01-07 19:57:00,50.2,46.2,30.09,North,356,2.0,5.0,86,0.00,,,-99.99,Weather View 32 v60,2013-01-08 03:57:00,
2013-01-07 20:00:00,48.6,45.2,30.09,NE,41,1.0,4.0,88,0.00,,,-99.99,Weather View 32 v60,2013-01-08 04:00:00,
2013-01-07 20:05:00,48.6,45.5,30.09,ESE,120,1.0,4.0,89,0.00,,,-99.99,Weather View 32 v60,2013-01-08 04:05:00,
2013-01-07 20:07:00,49.9,46.2,30.09,ENE,70,1.0,3.0,87,0.00,,,-99.99,Weather View 32 v60,2013-01-08 04:07:00,
2013-01-07 20:10:00,48.6,45.5,30.09,East,95,1.0,4.0,89,0.00,,,-99.99,Weather View 32 v60,2013-01-08 04:10:00,
2013-01-07 20:12:00,49.8,46.1,30.09,North,2,1.0,3.0,87,0.00,,,-99.99,Weather View 32 v60,2013-01-08 04:12:00,
2013-01-07 20:15:00,48.5,45.4,30.09,East,90,2.0,4.0,89,0.00,,,-99.99,Weather View 32 v60,2013-01-08 04:15:00,
2013-01-07 20:17:00,49.6,45.9,30.09,ENE,77,1.0,3.0,87,0.00,,,-99.99,Weather View 32 v60,2013-01-08 04:17:00,
2013-01-07 20:20:00,48.4,45.3,30.10,North,5,0.0,4.0,89,0.00,,,-99.99,Weather View 32 v60,2013-01-08 04:20:00,
2013-01-07 20:25:00,48.2,45.1,30.10,North,5,1.0,4.0,89,0.00,,,-99.99,Weather View 32 v60,2013-01-08 04:25:00,
2013-01-07 20:27:00,49.3,45.6,30.09,ENE,76,3.0,4.0,87,0.00,,,-99.99,Weather View 32 v60,2013-01-08 04:27:00,
2013-01-07 20:30:00,48.0,44.9,30.10,WNW,298,1.0,3.0,89,0.00,,,-99.99,Weather View 32 v60,2013-01-08 04:30:00,
2013-01-07 20:32:00,49.3,45.9,30.09,ESE,118,2.0,4.0,88,0.00,,,-99.99,Weather View 32 v60,2013-01-08 04:32:00,
2013-01-07 20:35:00,47.9,44.8,30.10,WSW,243,0.0,3.0,89,0.00,,,-99.99,Weather View 32 v60,2013-01-08 04:35:00,
2013-01-07 20:37:00,49.2,45.8,30.09,ESE,106,2.0,4.0,88,0.00,,,-99.99,Weather View 32 v60,2013-01-08 04:37:00,
2013-01-07 20:40:00,47.7,44.9,30.10,WSW,243,0.0,3.0,90,0.00,,,-99.99,Weather View 32 v60,2013-01-08 04:40:00,
2013-01-07 20:42:00,49.1,45.7,30.10,ENE,76,2.0,4.0,88,0.00,,,-99.99,Weather View 32 v60,2013-01-08 04:42:00,
2013-01-07 20:45:00,47.7,44.9,30.10,WSW,244,1.0,2.0,90,0.00,,,-99.99,Weather View 32 v60,2013-01-08 04:45:00,
2013-01-07 20:47:00,49.2,45.8,30.10,East,97,2.0,4.0,88,0.00,,,-99.99,Weather View 32 v60,2013-01-08 04:47:00,
2013-01-07 20:50:00,47.4,44.6,30.10,WSW,245,1.0,2.0,90,0.00,,,-99.99,Weather View 32 v60,2013-01-08 04:50:00,
2013-01-07 20:55:00,47.2,44.4,30.10,WSW,245,0.0,2.0,90,0.00,,,-99.99,Weather View 32 v60,2013-01-08 04:55:00,
2013-01-07 20:57:00,48.8,45.4,30.09,NE,54,1.0,4.0,88,0.00,,,-99.99,Weather View 32 v60,2013-01-08 04:57:00,
2013-01-07 21:00:00,47.0,44.2,30.10,North,11,1.0,2.0,90,0.00,,,-99.99,Weather View 32 v60,2013-01-08 05:00:00,
2013-01-07 21:05:00,46.7,43.9,30.10,North,5,1.0,2.0,90,0.00,,,-99.99,Weather View 32 v60,2013-01-08 05:05:00,
2013-01-07 21:10:00,46.5,43.7,30.10,NNW,335,1.0,2.0,90,0.00,,,-99.99,Weather View 32 v60,2013-01-08 05:10:00,
2013-01-07 21:15:00,46.3,43.5,30.10,NNW,335,0.0,2.0,90,0.00,,,-99.99,Weather View 32 v60,2013-01-08 05:15:00,
2013-01-07 21:20:00,46.0,43.5,30.10,NNW,335,0.0,2.0,91,0.00,,,-99.99,Weather View 32 v60,2013-01-08 05:20:00,
2013-01-07 21:25:00,45.9,43.4,30.10,NNW,335,0.0,2.0,91,0.00,,,-99.99,Weather View 32 v60,2013-01-08 05:25:00,
2013-01-07 21:30:00,46.0,43.5,30.11,North,0,0.0,2.0,91,0.00,,,-99.99,Weather View 32 v60,2013-01-08 05:30:00,
2013-01-07 21:35:00,45.8,43.3,30.10,North,0,0.0,2.0,91,0.00,,,-99.99,Weather View 32 v60,2013-01-08 05:35:00,
2013-01-07 21:40:00,45.6,43.1,30.11,North,0,0.0,2.0,91,0.00,,,-99.99,Weather View 32 v60,2013-01-08 05:40:00,
2013-01-07 21:45:00,45.5,43.0,30.11,North,1,0.0,2.0,91,0.00,,,-99.99,Weather View 32 v60,2013-01-08 05:45:00,
2013-01-07 21:50:00,45.3,42.8,30.11,NE,37,1.0,2.0,91,0.00,,,-99.99,Weather View 32 v60,2013-01-08 05:50:00,
2013-01-07 21:55:00,45.3,43.1,30.11,ENE,64,2.0,2.0,92,0.00,,,-99.99,Weather View 32 v60,2013-01-08 05:55:00,
2013-01-07 22:00:00,45.4,43.2,30.11,East,94,3.0,3.0,92,0.00,,,-99.99,Weather View 32 v60,2013-01-08 06:00:00,
2013-01-07 22:05:00,45.2,43.0,30.11,East,83,2.0,3.0,92,0.00,,,-99.99,Weather View 32 v60,2013-01-08 06:05:00,
2013-01-07 22:10:00,45.0,42.8,30.11,East,89,2.0,3.0,92,0.00,,,-99.99,Weather View 32 v60,2013-01-08 06:10:00,
2013-01-07 22:15:00,44.9,42.7,30.11,East,80,2.0,3.0,92,0.00,,,-99.99,Weather View 32 v60,2013-01-08 06:15:00,
2013-01-07 22:20:00,44.8,42.6,30.10,ENE,64,1.0,3.0,92,0.00,,,-99.99,Weather View 32 v60,2013-01-08 06:20:00,
2013-01-07 22:25:00,44.6,42.4,30.10,ENE,71,0.0,3.0,92,0.00,,,-99.99,Weather View 32 v60,2013-01-08 06:25:00,
2013-01-07 22:30:00,44.4,42.2,30.11,East,87,0.0,3.0,92,0.00,,,-99.99,Weather View 32 v60,2013-01-08 06:30:00,
2013-01-07 22:35:00,44.3,42.1,30.10,East,84,0.0,3.0,92,0.00,,,-99.99,Weather View 32 v60,2013-01-08 06:35:00,
2013-01-07 22:40:00,44.4,42.5,30.10,East,91,2.0,3.0,93,0.00,,,-99.99,Weather View 32 v60,2013-01-08 06:40:00,
2013-01-07 22:45:00,44.3,42.1,30.10,East,89,1.0,3.0,92,0.00,,,-99.99,Weather View 32 v60,2013-01-08 06:45:00,
2013-01-07 22:50:00,44.0,41.8,30.10,NNW,328,1.0,3.0,92,0.00,,,-99.99,Weather View 32 v60,2013-01-08 06:50:00,
2013-01-07 22:55:00,43.8,41.6,30.10,WNW,296,1.0,3.0,92,0.00,,,-99.99,Weather View 32 v60,2013-01-08 06:55:00,
2013-01-07 23:00:00,43.6,41.4,30.10,WNW,290,0.0,3.0,92,0.00,,,-99.99,Weather View 32 v60,2013-01-08 07:00:00,
2013-01-07 23:05:00,43.4,41.5,30.10,WNW,291,0.0,3.0,93,0.00,,,-99.99,Weather View 32 v60,2013-01-08 07:05:00,
2013-01-07 23:10:00,43.5,41.6,30.10,WNW,288,1.0,3.0,93,0.00,,,-99.99,Weather View 32 v60,2013-01-08 07:10:00,
2013-01-07 23:15:00,43.4,41.5,30.10,WNW,288,0.0,3.0,93,0.00,,,-99.99,Weather View 32 v60,2013-01-08 07:15:00,
2013-01-07 23:20:00,43.3,41.4,30.10,WNW,290,2.0,2.0,93,0.00,,,-99.99,Weather View 32 v60,2013-01-08 07:20:00,
2013-01-07 23:25:00,43.1,41.2,30.10,NW,308,1.0,2.0,93,0.00,,,-99.99,Weather View 32 v60,2013-01-08 07:25:00,
2013-01-07 23:30:00,42.8,40.9,30.10,WNW,302,1.0,2.0,93,0.00,,,-99.99,Weather View 32 v60,2013-01-08 07:30:00,
2013-01-07 23:35:00,42.6,40.7,30.10,WNW,303,0.0,2.0,93,0.00,,,-99.99,Weather View 32 v60,2013-01-08 07:35:00,
2013-01-07 23:40:00,42.6,40.7,30.11,WNW,302,0.0,2.0,93,0.00,,,-99.99,Weather View 32 v60,2013-01-08 07:40:00,
2013-01-07 23:45:00,42.7,40.8,30.11,WSW,246,1.0,2.0,93,0.00,,,-99.99,Weather View 32 v60,2013-01-08 07:45:00,
2013-01-07 23:50:00,42.9,41.0,30.11,West,259,1.0,3.0,93,0.00,,,-99.99,Weather View 32 v60,2013-01-08 07:50:00,
2013-01-07 23:55:00,42.9,41.0,30.11,South,171,2.0,3.0,93,0.00,,,-99.99,Weather View 32 v60,2013-01-08 07:55:00,